Location: Casalecchio di Reno
(44.4760°N, 11.2757°E)
Time: 22:36:59
(UTC+02:00)

QB50P2 - Pass Details

Date: 18 June 2024
Orbit: 561 x 578 km, 98.0° (Epoch: 17 July)

Event Time Altitude Azimuth Distance (km) Brightness Sun altitude
Rises 03:44:22 0° 17° (NNE) 2,772 ? -14.1°
Reaches altitude 10° 03:46:34 10° 22° (NNE) 1,868 ? -13.9°
Maximum altitude 03:50:31 54° 100° (E) 689 ? -13.5°
Enters shadow 03:53:54 14° 177° (S) 1,630 ? -13.1°
